Weather History for CXRB - April, 2014

Change the Weather History Date:

Sunday, April 20, 2014

  Actual Average Record
Temperature  
Mean Temperature -14 °F -  
Max Temperature -6 °F - - ()
Min Temperature -23 °F - - ()
Degree Days  
Heating Degree Days 80    
Moisture  
Dew Point -20 °F    
Average Humidity 70    
Maximum Humidity 81    
Minimum Humidity 46    
Precipitation  
Precipitation 0.01 in - - ()
Sea Level Pressure  
Sea Level Pressure 30.15 in    
Wind  
Wind Speed 6 mph ()    
Max Wind Speed 8 mph    
Max Gust Speed -    
T = Trace of Precipitation, MM = Missing Value Source: Averaged Metar Reports

Daily Weather History Graph

Daily Weather History Graph

Search for Another Location

Airport or City:

Trip Planner

Search our weather history database for the weather conditions in past years. The results will help you decide how hot, cold, wet, or windy it might be!

Date:

Astronomy

Apr. 20, 2014 Rise Set
Actual Time 2:45 AM MDT 9:59 PM MDT
Civil Twilight Sun does not rise Sun does not rise
Nautical Twilight Sun does not rise Sun does not rise
Astronomical Twilight Sun does not rise Sun does not rise
Moon No Moon Rise No Moon Set
Length of Visible Light 24h 00m
Length of Day
19h 14m
Waning Gibbous, 68% of the Moon is Illuminated
Apr 20
Waning Gibbous
Apr 22
Last Quarter
Apr 29
New
May 6
First Quarter
May 14
Full

Hourly Weather History & Observations

Time (MDT) Temp. Windchill Dew Point Humidity Pressure Visibility Wind Dir Wind Speed Gust Speed Precip Events Conditions
12:00 AM -12 °F - -16 °F 73% 30.06 in - North 8.1 mph - -  
12:00 AM -11.6 °F -28.3 °F -15.9 °F 81% 30.06 in - North 8.1 mph - N/A   Unknown
1:00 AM -12.6 °F -29.6 °F -17.1 °F 80% 30.07 in - North 8.1 mph - N/A   Unknown
2:00 AM -17.9 °F -30.7 °F -22.7 °F 78% 30.08 in - WNW 4.6 mph - N/A   Unknown
3:00 AM -18.0 °F -28.5 °F -23.1 °F 78% 30.10 in - WNW 3.5 mph - N/A   Unknown
4:00 AM -16.6 °F -31.3 °F -21.5 °F 79% 30.11 in - NNW 5.8 mph - N/A   Unknown
5:00 AM -16.2 °F -32.5 °F -20.9 °F 79% 30.12 in - NNW 6.9 mph - N/A   Unknown
6:00 AM -17 °F - -23 °F 62% 30.12 in - NNW 8.1 mph - -  
6:00 AM -17.3 °F -35.3 °F -22.7 °F 76% 30.12 in - NNW 8.1 mph - N/A   Unknown
7:00 AM -23.8 °F -41.6 °F -30.8 °F 70% 30.13 in - West 6.9 mph - 0.01 in   Unknown
8:00 AM -21.6 °F -39.0 °F -29.0 °F 69% 30.14 in - WNW 6.9 mph - N/A   Unknown
9:00 AM -12.5 °F -24.4 °F -20.4 °F 68% 30.14 in - NNW 4.6 mph - N/A   Unknown
10:00 AM -6.7 °F -15.5 °F -17.9 °F 58% 30.14 in - NW 3.5 mph - N/A   Unknown
11:00 AM -7.2 °F -18.3 °F -17.3 °F 62% 30.15 in - North 4.6 mph - N/A   Unknown
12:00 PM -11 °F - -21 °F 46% 30.16 in - WNW 4.6 mph - -  
12:00 PM -11.2 °F -23.0 °F -20.6 °F 63% 30.16 in - WNW 4.6 mph - N/A   Unknown
1:00 PM -9.6 °F -24.5 °F -17.5 °F 68% 30.16 in - WNW 6.9 mph - N/A   Unknown
2:00 PM -8.1 °F -24.1 °F -16.1 °F 68% 30.17 in - NW 8.1 mph - N/A   Unknown
3:00 PM -7.2 °F -21.7 °F -15.3 °F 68% 30.18 in - NW 6.9 mph - N/A   Unknown
4:00 PM -8.0 °F -21.0 °F -16.1 °F 68% 30.19 in - NW 5.8 mph - N/A   Unknown
5:00 PM -9.0 °F -22.3 °F -16.8 °F 69% 30.19 in - NW 5.8 mph - N/A   Unknown
6:00 PM -9 °F - -16 °F 56% 30.19 in - NNW 6.9 mph - -  
6:00 PM -9.0 °F -23.8 °F -16.4 °F 70% 30.19 in - NNW 6.9 mph - N/A   Unknown
7:00 PM -11.4 °F -25.1 °F -18.6 °F 70% 30.20 in - West 5.8 mph - N/A   Unknown
8:00 PM -10.1 °F -21.7 °F -16.4 °F 74% 30.20 in - NW 4.6 mph - N/A   Unknown
9:00 PM -14.8 °F -29.1 °F -20.4 °F 76% 30.19 in - WNW 5.8 mph - N/A   Unknown
10:00 PM -16.1 °F -30.6 °F -20.6 °F 80% 30.19 in - WNW 5.8 mph - N/A   Unknown
11:00 PM -16.2 °F -30.8 °F -20.7 °F 80% 30.19 in - NW 5.8 mph - N/A   Unknown